Location: Jackson Park
(37.2862°N, 79.9123°W)
Time: 10:26:27
(UTC+00:00)

SR - Pass Details

Date: 22 May 2026
Orbit: 567 x 853 km, 66.7° (Epoch: 10 June)

Event Time Altitude Azimuth Distance (km) Brightness Sun altitude
Rises 18:30:28 0° 343° (NNW) 3,391 ? 66.7°
Reaches altitude 10° 18:33:22 10° 356° (N) 2,474 ? 66.3°
Maximum altitude 18:38:04 25° 51° (NE) 1,652 ? 65.6°
Drops below altitude 10° 18:42:44 10° 105° (ESE) 2,466 ? 64.8°
Sets 18:45:36 0° 118° (ESE) 3,379 ? 64.4°
